Location: Callao
(39.8979°N, 113.7141°W)
Time: 09:00:56
(UTC+00:00)

X-37B - Visible Passes

Search period start: 06 March 2021 00:00
Search period end: 16 March 2021 00:00
Orbit: 383 x 391 km, 45.0° (Epoch: 27 February)

Date Brightness Start Highest point End Pass type
(mag) Time Alt. Az. Time Alt. Az. Time Alt. Az.
10 Mar 2.7 03:16:44 10° SSW 03:17:56 19° SSW 03:17:56 19° SSW visible
11 Mar 2.4 02:19:13 10° S 02:21:24 17° SE 02:22:51 13° ESE visible
11 Mar 3.5 03:54:32 10° WSW 03:55:10 15° WSW 03:55:10 15° WSW visible
12 Mar 0.7 02:56:14 10° SW 02:59:23 58° SSE 02:59:57 48° ESE visible
13 Mar 1.9 03:34:32 10° W 03:36:56 40° WNW 03:36:56 40° WNW visible
14 Mar 0.6 02:36:03 10° WSW 02:39:15 80° NNW 02:41:29 18° ENE visible
14 Mar 4.0 04:13:14 10° WNW 04:13:47 14° WNW 04:13:47 14° WNW visible
15 Mar 1.7 03:14:37 10° W 03:17:39 37° NNW 03:18:14 34° NNE visible
